Regional Weather Roundup
Issued by NWS

Home | Current Version | Previous Version | Text Only | Print | Product List | Glossary On
Versions: 1 2 3 4 5 6 7 8 9 10 11 12 13 14 15 16 17 18 19 20 21 22 23 24 25 26 27 28 29 30 31 32 33 34 35 36 37 38 39 40 41 42 43 44 45 46 47 48 49 50
000
ASUS46 KLOX 272013
RWRCA

SOUTHERN CALIFORNIA WEATHER ROUNDUP
NATIONAL WEATHER SERVICE OXNARD CALIFORNIA
100 PM PDT FRI MAY 27 2016

NOTE: "FAIR" INDICATES FEW OR NO CLOUDS BELOW 12,000 FEET WITH NO
SIGNIFICANT WEATHER AND/OR OBSTRUCTIONS TO VISIBILITY.

  -  STATIONS PRECEEDED BY AN ASTERISK (*) ARE NOT NWS OR FAA
     STATIONS AND ARE NOT SUBJECT TO NWS AND FAA QUALITY CONTROL.

CAZ041-042-087-272100-
LA AND ORANGE COUNTY COASTAL AREAS


CITY           SKY/WX    TMP DP  RH WIND       PRES   REMARKS
L.A. DOWNTOWN  SUNNY     73  56  54 VRB3      29.89F
L.A. AIRPORT   MOSUNNY   67  54  63 W12       29.91F
LONG BEACH     SUNNY     68  55  63 S7        29.91F

CITY           SKY/WX    TMP DP  RH WIND       PRES   REMARKS
AVALON           N/A     68 N/A N/A W5          N/A
FULLERTON      SUNNY     72  54  53 CALM      29.89F
*GETTY CENTER    N/A     68  54  60 S12         N/A
HAWTHORNE      SUNNY     70  54  56 W10       29.91F
*LOS ALAMITOS  MOSUNNY   71  56  59 S6        29.90F
*REDONDO BEACH   N/A     69  55  60 S3        29.90F
SANTA ANA      MOSUNNY   69  55  60 S8        29.90F
STA MONICA APT SUNNY     66  55  67 W9        29.91F
*STA MON PIER    N/A     61  57  87 W9        29.85F
TORRANCE       SUNNY     73  57  56 W7        29.91F
*UCLA            N/A     64  54  68 SW13      29.88F

$$

CAZ547-548-048-272100-
LA COUNTY VALLEYS AND INLAND EMPIRE


CITY           SKY/WX    TMP DP  RH WIND       PRES   REMARKS
BURBANK        SUNNY     74  54  49 VRB6      29.88F
VAN NUYS       SUNNY     77  52  41 SE8       29.88F

CITY           SKY/WX    TMP DP  RH WIND       PRES   REMARKS
CORONA AIRPORT CLEAR     76  56  49 W12       29.88F
*CHATSWORTH      N/A     79  55  43 SW2       29.87F
CHINO          MOSUNNY   81  52  36 SW10      29.89F
*CLAREMONT       N/A     73  53  48 S7          N/A
MARCH AFB      SUNNY     76  52  43 NW9       29.89F
*NORTHRIDGE      N/A     75  48  38 SE2         N/A
ONTARIO        MOSUNNY   77  52  41 SW10      29.88F
*PASADENA        N/A     73  57  56 E2          N/A
POMONA         SUNNY     73  52  46 W9        29.92F
RIVERSIDE      SUNNY     78  51  38 VRB7      29.88F
SAN BERNARDINO SUNNY     79  48  34 W3        29.89F HAZE
*WHITEMAN AP   SUNNY     73  52  46 E6        29.92F
*WHITTIER HILL   N/A     72  55  54 SW7         N/A
*WOODLAND HILL   N/A     79  52  38 N3          N/A

$$

CAZ054-055-272100-
LA AND SAN BERNARDINO COUNTY MOUNTAINS


CITY           SKY/WX    TMP DP  RH WIND       PRES   REMARKS
*ACTON           N/A     83  40  21 W8          N/A
*BIG BEAR AIRP CLEAR     61  28  29 NE3       30.09S
*BIG PINES       N/A     64  32  30 SW2         N/A
*CHILAO          N/A     68  31  25 SE16G28     N/A
SANDBERG       MOSUNNY   75  41  29 N8        30.02F
*WARM SPRINGS    N/A     83  62  48 CALM        N/A

$$

CAZ028-029-059-060-099-272100-
ANTELOPE VALLEY AND SURROUNDING AREAS


CITY           SKY/WX    TMP DP  RH WIND       PRES   REMARKS
LANCASTER      SUNNY     84  31  14 VRB3      29.89F
PALMDALE       SUNNY     82  33  17 W7        29.90F

CITY           SKY/WX    TMP DP  RH WIND       PRES   REMARKS
29 PALMS       MOSUNNY   84  27  12 VRB5      29.92F
BARSTOW/DAGGET SUNNY     85  32  15 CALM      29.85F
BISHOP         SUNNY     79  26  14 VRB3      29.94F
CHINA LAKE     MOSUNNY   86  30  13 SE10G20   29.87F
EDWARDS AFB    MOSUNNY   81  31  16 NE3       29.87F
MOJAVE         SUNNY     81  34  18 VRB6      29.92F
NEEDLES        SUNNY     92  34  13 S3        29.78F
VICTORVILLE    MOSUNNY   81  28  15 SE6       29.92F

$$

CAZ039-040-272100-
VENTURA AND SANTA BARBARA COUNTY COAST


CITY           SKY/WX    TMP DP  RH WIND       PRES   REMARKS
CAMARILLO      SUNNY     69  54  58 SW10G17   29.91F
NWS OXNARD       N/A     71  55  58 SW5       29.91S
OXNARD AIRPORT SUNNY     66  55  67 SW8       29.92F
*POINT MUGU    MOSUNNY   67  56  67 W8        29.93S
SBA APT/GOLETA SUNNY     65  55  70 SW6       29.92F
*SANTA BARBARA   N/A     71  53  52 W7        29.99F
*VENTURA         N/A     69  58  68 SW5       29.89F

$$

CAZ044-045-272100-
VENTURA COUNTY VALLEYS


CITY           SKY/WX    TMP DP  RH WIND       PRES   REMARKS
*SIMI VALLEY     N/A     74  56  54 SW7       29.84F
*WESTLAKE VILL   N/A     78  59  52 N1        29.88F
*OJAI            N/A     47  44  91 CALM      29.83F
*FILLMORE        N/A     78  58  50 SW7       29.78S

$$

CAZ053-272100-
VENTURA COUNTY MOUNTAINS


CITY           SKY/WX    TMP DP  RH WIND       PRES   REMARKS
*ROSE VALLEY     N/A     73  50  43 MISG        N/A

$$

CAZ034-035-036-272100-
CENTRAL COAST AND SANTA YNEZ VALLEY


CITY           SKY/WX    TMP DP  RH WIND       PRES   REMARKS
SAN LUIS OBISP SUNNY     71  53  52 NW14      29.90F
SANTA MARIA    SUNNY     66  52  60 NW12      29.93F

CITY           SKY/WX    TMP DP  RH WIND       PRES   REMARKS
*CAL POLY SLO    N/A     72  57  60 W7          N/A
*PISMO BEACH     N/A     57  53  87 W6        29.93F
*SANTA YNEZ    FAIR      73  50  43 W7        29.90F

$$

CAZ037-038-051-272100-
SAN LUIS OBISPO COUNTY INTERIOR AND CUYAMA VALLEY


CITY           SKY/WX    TMP DP  RH WIND       PRES   REMARKS
*CUYAMA          N/A     75  50  42 NE3       29.83F
PASO ROBLES    SUNNY     81  44  27 W6        29.88F

$$

CAZ032-033-061-272100-
SOUTHERN DESERTS


CITY           SKY/WX    TMP DP  RH WIND       PRES   REMARKS
BLYTHE         SUNNY     91  39  16 VRB6      29.78F
IMPERIAL       SUNNY     91  44  19 VRB3      29.78F
PALM SPRINGS     N/A    N/A N/A N/A MISG        N/A
THERMAL        SUNNY     93  43  17 SE14      29.75F

$$

ELSEWHERE ACROSS THE WESTERN UNITED STATES AND MEXICO


CITY           SKY/WX    TMP DP  RH WIND       PRES   REMARKS
DEATH VALLEY,    N/A     97  31  10 SE3         N/A  HX  91
DENVER, CO     CLOUDY    54  46  74 NE17      29.91S
GRAND CANYON,  CLOUDY    65  24  21 VRB7      30.05F
HONOLULU, HI   MOSUNNY   81  70  69 SE10      30.09S
KAHULUI, MAUI  MOSUNNY   84  66  54 CALM      30.08S
LAKE TAHOE, CA SUNNY     61  40  45 NE9       30.07F
LAS VEGAS, NV  MOSUNNY   85  30  13 VRB3      29.80F
MAMMOTH LAKES, FAIR      65  28  25 NE5       30.09F
MEXICO CITY, M MOSUNNY   79  50  36 NE9       30.20F
PHOENIX, AZ    MOSUNNY   87  31  13 CALM      29.80F
PORTLAND, OR   PTSUNNY   59  47  64 SE3       30.20F
RENO, NV       MOSUNNY   73  35  25 VRB3      29.99F
SALT LAKE CITY PTSUNNY   69  32  25 CALM      29.92F
SAN DIEGO, CA  CLOUDY    66  55  67 W7        29.93F
SAN FRANCISCO, MOSUNNY   71  57  61 NW15      29.94F
SAN JOSE, CA   MOSUNNY   76  51  41 NW7       29.92F
SEATTLE, WA    PTSUNNY   60  38  43 S10       30.16S
TIJUANA, MEX   PTSUNNY   66  54  63 W12       29.93F

$$

STATION/POSITION TIME  TEMP    WIND        PRES    VSBY  WAVE
                       AIR SEA DIR/SP/G                  HT/PER
                 (UTC) (F)     (DEG/KT/KT) (MB)    (MI)  (FT/S)
POINT ARGUELLO B NOT AVBL
WEST SANTA BARBA 1950   54 53  320/ 16/ 19 1013.3F         6/ 8
POINT CONCEPTION NOT AVBL
EAST SANTA BARBA 2000   57 59  240/  8/ 10 1013.9F
SANTA MONICA BAY 1950   61 64  240/  6/  6 1013.5F         3/ 7



USA.gov is the U.S. government's official web portal to all federal, state and local government web resources and services.